Location: Владивосток
(43.1151°N, 131.8856°E)
Time: 08:33:15
(UTC+10:00)

SPROUT - Pass Details

Date: 08 July 2022
Orbit: 588 x 598 km, 97.9° (Epoch: 18 August)

Event Time Altitude Azimuth Distance (km) Brightness Sun altitude
Exits shadow 01:45:57 57° 88° (E) 697 ? -24.0°
Maximum altitude 01:46:10 58° 73° (ENE) 691 ? -24.0°
Drops below altitude 10° 01:50:16 10° 355° (N) 1,928 ? -23.9°
Sets 01:52:27 0° 352° (N) 2,835 ? -23.9°
